timestamp,wind_dir_avg,wind_spd_avg,wind_spd_max_dir,wind_spd_gust,battery_voltage,lat,long
2023-01-05 00:04:00+00:00,243.0,6.54,244.0,7.4,12.17,47.59359,-54.27349
2023-01-05 00:14:00+00:00,239.0,6.64,236.0,7.66,12.17,47.59359,-54.27349
2023-01-05 00:24:00+00:00,239.0,6.69,239.0,7.18,12.17,47.59359,-54.27349
2023-01-05 00:34:00+00:00,236.0,5.95,238.0,6.58,12.17,47.59359,-54.27349
2023-01-05 00:44:00+00:00,248.0,5.56,252.0,6.37,12.17,47.59359,-54.27349
2023-01-05 00:54:00+00:00,252.0,5.11,257.0,5.73,12.17,47.59359,-54.27349
2023-01-05 01:04:00+00:00,265.0,6.07,273.0,6.71,12.17,47.59359,-54.27349
2023-01-05 01:14:00+00:00,279.0,6.25,282.0,7.04,12.17,47.59359,-54.27349
2023-01-05 01:24:00+00:00,292.0,8.99,298.0,10.71,12.17,47.59359,-54.27349
2023-01-05 01:34:00+00:00,324.0,9.22,326.0,11.99,12.17,47.59359,-54.27349
2023-01-05 01:44:00+00:00,313.0,6.33,310.0,7.87,12.17,47.59359,-54.27349
2023-01-05 01:54:00+00:00,326.0,7.67,321.0,9.52,12.17,47.59359,-54.27349
2023-01-05 02:04:00+00:00,316.0,7.96,312.0,9.45,12.17,47.59359,-54.27349
2023-01-05 02:14:01+00:00,310.0,9.16,314.0,10.58,12.17,47.59359,-54.27349
2023-01-05 02:24:01+00:00,309.0,10.81,302.0,15.16,12.17,47.59359,-54.27349
2023-01-05 02:34:01+00:00,313.0,11.19,314.0,12.27,12.17,47.59359,-54.27349
2023-01-05 02:44:01+00:00,316.0,10.14,316.0,13.13,12.17,47.59359,-54.27349
2023-01-05 02:54:01+00:00,306.0,10.36,303.0,12.22,12.17,47.59359,-54.27349
2023-01-05 03:04:01+00:00,309.0,10.63,308.0,12.4,12.17,47.59359,-54.27349
2023-01-05 03:14:00+00:00,317.0,8.24,304.0,10.91,12.17,47.59359,-54.27349
2023-01-05 03:24:00+00:00,315.0,9.38,306.0,11.57,12.17,47.59359,-54.27349
2023-01-05 03:34:00+00:00,317.0,8.87,309.0,12.81,12.17,47.59359,-54.27349
2023-01-05 03:44:00+00:00,313.0,8.14,309.0,12.62,12.17,47.59359,-54.27349
2023-01-05 03:54:00+00:00,323.0,6.82,311.0,9.42,12.17,47.59359,-54.27349
2023-01-05 04:04:00+00:00,327.0,6.81,331.0,7.65,12.17,47.59359,-54.27349
2023-01-05 04:14:00+00:00,305.0,8.78,298.0,11.51,12.17,47.59359,-54.27349
2023-01-05 04:24:00+00:00,301.0,8.42,297.0,11.43,12.17,47.59359,-54.27349
2023-01-05 04:34:00+00:00,297.0,10.34,304.0,11.74,12.17,47.59359,-54.27349
2023-01-05 04:44:00+00:00,298.0,10.83,300.0,12.18,12.17,47.59359,-54.27349
2023-01-05 04:54:00+00:00,313.0,10.84,313.0,12.69,12.17,47.59359,-54.27349
2023-01-05 05:04:00+00:00,336.0,8.95,326.0,13.43,12.17,47.59359,-54.27349
2023-01-05 05:14:01+00:00,347.0,10.52,350.0,12.75,12.09,47.59359,-54.27349
2023-01-05 05:24:01+00:00,340.0,10.87,341.0,12.94,12.09,47.59359,-54.27349
2023-01-05 05:34:01+00:00,335.0,11.31,335.0,13.17,12.09,47.59359,-54.27349
2023-01-05 05:44:01+00:00,337.0,10.18,338.0,11.95,12.09,47.59359,-54.27349
2023-01-05 05:54:01+00:00,342.0,9.97,348.0,12.24,12.09,47.59359,-54.27349
2023-01-05 06:04:01+00:00,341.0,10.67,345.0,12.47,12.09,47.59359,-54.27349
2023-01-05 06:14:00+00:00,340.0,10.13,336.0,11.64,12.09,47.59359,-54.27349
2023-01-05 06:24:00+00:00,354.0,8.94,335.0,10.3,12.09,47.59359,-54.27349
2023-01-05 06:34:00+00:00,337.0,10.07,331.0,12.03,12.09,47.59359,-54.27349
2023-01-05 06:44:00+00:00,339.0,9.55,330.0,11.14,12.09,47.59359,-54.27349
2023-01-05 06:54:00+00:00,334.0,10.22,333.0,12.54,12.09,47.59359,-54.27349
2023-01-05 07:04:00+00:00,330.0,8.11,322.0,10.04,12.09,47.59359,-54.27349
2023-01-05 07:14:00+00:00,335.0,9.85,340.0,12.35,12.09,47.59359,-54.27349
2023-01-05 07:24:00+00:00,332.0,8.56,311.0,11.87,12.09,47.59359,-54.27349
2023-01-05 07:34:00+00:00,338.0,8.84,341.0,11.73,12.09,47.59359,-54.27349
2023-01-05 07:44:00+00:00,333.0,9.72,339.0,11.36,12.09,47.59359,-54.27349
2023-01-05 07:54:00+00:00,333.0,11.14,334.0,12.69,12.09,47.59359,-54.27349
2023-01-05 08:04:00+00:00,332.0,9.79,324.0,14.64,12.09,47.59359,-54.27349
2023-01-05 08:14:01+00:00,334.0,13.19,338.0,14.82,12.09,47.59359,-54.27349
2023-01-05 08:24:01+00:00,336.0,13.12,336.0,16.0,12.09,47.59359,-54.27349
2023-01-05 08:34:01+00:00,333.0,12.47,334.0,14.93,12.09,47.59359,-54.27349
2023-01-05 08:44:01+00:00,333.0,12.18,327.0,14.91,12.09,47.59359,-54.27349
2023-01-05 08:54:01+00:00,333.0,11.31,342.0,15.21,12.09,47.59359,-54.27349
2023-01-05 09:04:01+00:00,343.0,10.88,325.0,13.74,12.09,47.59359,-54.27349
2023-01-05 09:14:00+00:00,354.0,8.82,358.0,9.86,12.01,47.59359,-54.27349
2023-01-05 09:24:00+00:00,357.0,9.97,5.0,11.72,12.01,47.59359,-54.27349
2023-01-05 09:34:00+00:00,354.0,9.65,342.0,12.64,12.01,47.59359,-54.27349
2023-01-05 09:44:00+00:00,318.0,12.08,313.0,13.91,12.01,47.59359,-54.27349
2023-01-05 09:54:00+00:00,341.0,9.83,315.0,12.75,12.01,47.59359,-54.27349
2023-01-05 10:04:00+00:00,318.0,11.6,317.0,14.41,12.01,47.59359,-54.27349
2023-01-05 10:14:00+00:00,321.0,11.21,318.0,14.2,12.01,47.59359,-54.27349
2023-01-05 10:24:00+00:00,341.0,10.53,344.0,13.12,12.01,47.59359,-54.27349
2023-01-05 10:34:00+00:00,341.0,11.14,328.0,14.13,12.01,47.59359,-54.27349
2023-01-05 10:44:00+00:00,336.0,9.48,315.0,12.48,12.01,47.59359,-54.27349
2023-01-05 10:54:00+00:00,339.0,9.3,329.0,11.8,12.01,47.59359,-54.27349
2023-01-05 11:04:00+00:00,357.0,9.1,10.0,10.38,12.01,47.59359,-54.27349
2023-01-05 11:14:00+00:00,345.0,10.35,318.0,13.16,12.01,47.59359,-54.27349
2023-01-05 11:24:00+00:00,331.0,11.85,326.0,14.05,12.01,47.59359,-54.27349
2023-01-05 11:34:00+00:00,320.0,12.48,314.0,14.06,12.01,47.59359,-54.27349
2023-01-05 11:44:00+00:00,343.0,10.14,326.0,14.08,12.01,47.59359,-54.27349
2023-01-05 11:54:00+00:00,330.0,8.91,320.0,12.78,12.01,47.59359,-54.27349
2023-01-05 12:04:00+00:00,320.0,8.18,307.0,11.14,12.01,47.59359,-54.27349
2023-01-05 12:14:00+00:00,314.0,9.36,308.0,11.73,13.6,47.59359,-54.27349
2023-01-05 12:24:00+00:00,300.0,10.2,293.0,11.86,13.6,47.59359,-54.27349
2023-01-05 12:34:00+00:00,299.0,10.28,302.0,11.76,13.6,47.59359,-54.27349
2023-01-05 12:44:00+00:00,301.0,7.5,305.0,11.05,13.6,47.59359,-54.27349
2023-01-05 12:54:00+00:00,317.0,6.56,285.0,9.65,13.6,47.59359,-54.27349
2023-01-05 13:04:00+00:00,300.0,7.36,291.0,10.26,13.6,47.59359,-54.27349
2023-01-05 13:14:00+00:00,304.0,8.26,300.0,11.78,14.48,47.59359,-54.27349
2023-01-05 13:24:00+00:00,326.0,3.91,321.0,5.71,14.48,47.59359,-54.27349
2023-01-05 13:34:00+00:00,309.0,6.63,296.0,10.37,14.48,47.59359,-54.27349
2023-01-05 13:44:00+00:00,317.0,8.37,307.0,11.45,14.48,47.59359,-54.27349
2023-01-05 13:54:00+00:00,309.0,6.39,296.0,9.51,14.48,47.59359,-54.27349
2023-01-05 14:04:00+00:00,295.0,8.7,292.0,11.07,14.48,47.59359,-54.27349
2023-01-05 14:14:01+00:00,305.0,9.36,304.0,11.89,14.48,47.59359,-54.27349
2023-01-05 14:24:01+00:00,302.0,9.76,304.0,11.99,14.48,47.59359,-54.27349
2023-01-05 14:34:01+00:00,306.0,8.55,299.0,11.5,14.48,47.59359,-54.27349
2023-01-05 14:44:01+00:00,301.0,8.51,298.0,11.26,14.48,47.59359,-54.27349
2023-01-05 14:54:01+00:00,306.0,7.65,299.0,10.04,14.48,47.59359,-54.27349
2023-01-05 15:04:01+00:00,314.0,9.44,317.0,11.49,14.48,47.59359,-54.27349
2023-01-05 15:14:00+00:00,307.0,6.69,311.0,9.12,13.92,47.59359,-54.27349
2023-01-05 15:24:00+00:00,313.0,6.84,305.0,8.49,13.92,47.59359,-54.27349
2023-01-05 15:34:00+00:00,308.0,7.6,310.0,8.88,13.92,47.59359,-54.27349
2023-01-05 15:44:00+00:00,293.0,6.08,284.0,6.75,13.92,47.59359,-54.27349
2023-01-05 15:54:00+00:00,298.0,6.99,287.0,8.32,13.92,47.59359,-54.27349
2023-01-05 16:04:00+00:00,294.0,6.37,297.0,7.18,13.92,47.59359,-54.27349
2023-01-05 16:14:01+00:00,302.0,7.21,307.0,8.42,13.76,47.59359,-54.27349
2023-01-05 16:24:01+00:00,295.0,7.5,302.0,8.39,13.76,47.59359,-54.27349
2023-01-05 16:34:01+00:00,292.0,6.71,308.0,8.22,13.76,47.59359,-54.27349
2023-01-05 16:44:01+00:00,284.0,6.55,292.0,8.01,13.76,47.59359,-54.27349
2023-01-05 16:54:01+00:00,297.0,6.7,293.0,8.28,13.76,47.59359,-54.27349
2023-01-05 17:04:01+00:00,289.0,7.74,281.0,8.51,13.76,47.59359,-54.27349
2023-01-05 18:14:01+00:00,290.0,5.34,306.0,8.38,14.48,47.59359,-54.27349
2023-01-05 18:24:01+00:00,290.0,5.52,288.0,8.34,14.48,47.59359,-54.27349
2023-01-05 18:34:01+00:00,283.0,8.4,288.0,9.09,14.48,47.59359,-54.27349
2023-01-05 18:44:01+00:00,288.0,4.35,292.0,6.56,14.48,47.59359,-54.27349
2023-01-05 18:54:01+00:00,306.0,5.86,298.0,8.96,14.48,47.59359,-54.27349
2023-01-05 19:04:01+00:00,300.0,5.76,291.0,7.83,14.48,47.59359,-54.27349
2023-01-05 19:14:00+00:00,318.0,4.84,317.0,6.39,13.84,47.59359,-54.27349
2023-01-05 19:24:00+00:00,307.0,5.19,320.0,7.43,13.84,47.59359,-54.27349
2023-01-05 19:34:00+00:00,315.0,5.31,301.0,7.36,13.84,47.59359,-54.27349
2023-01-05 19:44:00+00:00,320.0,5.7,318.0,6.95,13.84,47.59359,-54.27349
2023-01-05 19:54:00+00:00,303.0,4.54,303.0,6.85,13.84,47.59359,-54.27349
2023-01-05 20:04:00+00:00,310.0,3.87,294.0,8.47,13.84,47.59359,-54.27349
2023-01-05 20:14:00+00:00,304.0,4.72,289.0,7.72,12.65,47.59359,-54.27349
2023-01-05 20:24:00+00:00,311.0,5.98,301.0,8.52,12.65,47.59359,-54.27349
2023-01-05 20:34:00+00:00,318.0,5.48,304.0,7.57,12.65,47.59359,-54.27349
2023-01-05 20:44:00+00:00,299.0,5.37,298.0,8.51,12.65,47.59359,-54.27349
2023-01-05 20:54:00+00:00,292.0,6.61,292.0,7.79,12.65,47.59359,-54.27349
2023-01-05 21:04:00+00:00,296.0,4.5,313.0,5.85,12.65,47.59359,-54.27349
2023-01-05 21:14:00+00:00,299.0,4.18,287.0,7.53,12.49,47.59359,-54.27349
2023-01-05 21:24:00+00:00,290.0,4.06,286.0,5.14,12.49,47.59359,-54.27349
2023-01-05 21:34:00+00:00,267.0,4.98,264.0,7.3,12.49,47.59359,-54.27349
2023-01-05 21:44:00+00:00,287.0,7.19,284.0,8.82,12.49,47.59359,-54.27349
2023-01-05 21:54:00+00:00,288.0,4.87,278.0,7.78,12.49,47.59359,-54.27349
2023-01-05 22:04:00+00:00,304.0,5.08,308.0,6.42,12.49,47.59359,-54.27349
2023-01-05 22:14:01+00:00,303.0,5.42,307.0,6.74,12.41,47.59359,-54.27349
2023-01-05 22:24:01+00:00,279.0,4.86,281.0,6.47,12.41,47.59359,-54.27349
2023-01-05 22:34:01+00:00,288.0,4.92,262.0,6.84,12.41,47.59359,-54.27349
2023-01-05 22:44:01+00:00,288.0,5.97,299.0,7.97,12.41,47.59359,-54.27349
2023-01-05 22:54:01+00:00,280.0,4.97,273.0,7.59,12.41,47.59359,-54.27349
2023-01-05 23:04:01+00:00,298.0,6.17,303.0,7.86,12.41,47.59359,-54.27349
2023-01-05 23:14:00+00:00,294.0,5.11,288.0,6.91,12.41,47.59359,-54.27349
2023-01-05 23:24:00+00:00,294.0,5.43,287.0,7.11,12.41,47.59359,-54.27349
2023-01-05 23:34:00+00:00,319.0,5.35,314.0,7.28,12.41,47.59359,-54.27349
2023-01-05 23:44:00+00:00,302.0,4.28,309.0,5.21,12.41,47.59359,-54.27349
2023-01-05 23:54:00+00:00,304.0,4.74,298.0,7.0,12.41,47.59359,-54.27349
